International Skating Union - Official Site

ISU World Cup Inzell
December 4-6, 2015

Draw | Lap Times | Index | World Cup

Referee: Erik  ØSMUNDSET  (NOR)
Starter: Jouko  VESTERLUND  (FIN)
StartTime: EndTime: Air Temp: Ice Temp: Humidity:
15:59 16:41 13.4℃ -6.3℃ 31%
Result 3000m Ladies Division A
Rankings as of Dec 6 2015 6:51PM
Rank: No.: Name: Nation: Time: Behind: Points:
1 223 Martina  Sábliková CZE CZE 4:03.18200m - 19.99 - (19.9)
600m - 51.12 - (31.1)
1000m - 1:22.36 - (31.2)
1400m - 1:54.61 - (32.2)
1800m - 2:26.67 - (32.0)
2200m - 2:58.88 - (32.2)
2600m - 3:30.89 - (32.0)
3000m - 4:03.18 - (32.2)
100
2 260 Marije  Joling NED NED 4:04.08200m - 20.07 - (20.0)
600m - 51.45 - (31.3)
1000m - 1:22.99 - (31.5)
1400m - 1:54.61 - (31.6)
1800m - 2:26.48 - (31.8)
2200m - 2:58.59 - (32.1)
2600m - 3:31.18 - (32.5)
3000m - 4:04.08 - (32.9)
0.90 80
3 285 Olga  Graf RUS RUS 4:05.87200m - 20.60 - (20.6)
600m - 51.81 - (31.2)
1000m - 1:23.66 - (31.8)
1400m - 1:55.80 - (32.1)
1800m - 2:27.99 - (32.1)
2200m - 3:00.46 - (32.4)
2600m - 3:33.10 - (32.6)
3000m - 4:05.87 - (32.7)
2.69 70
4 271 Jorien  Voorhuis NED NED 4:05.89200m - 20.23 - (20.2)
600m - 51.94 - (31.7)
1000m - 1:24.15 - (32.2)
1400m - 1:56.31 - (32.1)
1800m - 2:28.68 - (32.3)
2200m - 3:00.93 - (32.2)
2600m - 3:33.50 - (32.5)
3000m - 4:05.89 - (32.3)
2.71 60
5 291 Natalya  Voronina RUS RUS 4:07.59200m - 19.84 - (19.8)
600m - 50.88 - (31.0)
1000m - 1:23.16 - (32.2)
1400m - 1:55.06 - (31.9)
1800m - 2:27.97 - (32.9)
2200m - 3:00.62 - (32.6)
2600m - 3:33.87 - (33.2)
3000m - 4:07.59 - (33.7)
4.41 50
6 263 Yvonne  Nauta NED NED 4:08.62200m - 20.16 - (20.1)
600m - 51.33 - (31.1)
1000m - 1:23.37 - (32.0)
1400m - 1:55.80 - (32.4)
1800m - 2:28.61 - (32.8)
2200m - 3:01.42 - (32.8)
2600m - 3:34.89 - (33.4)
3000m - 4:08.62 - (33.7)
5.44 45
7 241 Miho  Takagi JPN JPN 4:08.90200m - 19.75 - (19.7)
600m - 51.16 - (31.4)
1000m - 1:23.60 - (32.4)
1400m - 1:56.51 - (32.9)
1800m - 2:29.01 - (32.5)
2200m - 3:01.81 - (32.8)
2600m - 3:34.96 - (33.1)
3000m - 4:08.90 - (33.9)
5.72 40
8 231 Claudia  Pechstein GER GER 4:08.97200m - 20.66 - (20.6)
600m - 52.48 - (31.8)
1000m - 1:24.99 - (32.5)
1400m - 1:57.93 - (32.9)
1800m - 2:30.81 - (32.8)
2200m - 3:03.76 - (32.9)
2600m - 3:36.44 - (32.6)
3000m - 4:08.97 - (32.5)
5.79 35
9 207 Ivanie  Blondin CAN CAN 4:09.48200m - 20.32 - (20.3)
600m - 51.75 - (31.4)
1000m - 1:23.73 - (31.9)
1400m - 1:55.80 - (32.0)
1800m - 2:28.51 - (32.7)
2200m - 3:01.40 - (32.8)
2600m - 3:35.01 - (33.6)
3000m - 4:09.48 - (34.4)
6.30 30
10 264 Irene  Schouten NED NED 4:09.78200m - 20.19 - (20.1)
600m - 51.92 - (31.7)
1000m - 1:23.98 - (32.0)
1400m - 1:56.60 - (32.6)
1800m - 2:29.54 - (32.9)
2200m - 3:02.92 - (33.3)
2600m - 3:36.19 - (33.2)
3000m - 4:09.78 - (33.5)
6.60 25
11 269 Annouk  van der Weijden NED NED 4:09.94200m - 19.59 - (19.5)
600m - 50.91 - (31.3)
1000m - 1:22.83 - (31.9)
1400m - 1:55.21 - (32.3)
1800m - 2:27.95 - (32.7)
2200m - 3:01.39 - (33.4)
2600m - 3:35.59 - (34.2)
3000m - 4:09.94 - (34.3)
6.76 21
12 275 Ida  Njåtun NOR NOR 4:09.99200m - 20.05 - (20.0)
600m - 51.72 - (31.6)
1000m - 1:23.86 - (32.1)
1400m - 1:56.16 - (32.3)
1800m - 2:28.93 - (32.7)
2200m - 3:02.04 - (33.1)
2600m - 3:35.72 - (33.6)
3000m - 4:09.99 - (34.2)
6.81 18
13 240 Misaki  Oshigiri JPN JPN 4:11.18200m - 19.92 - (19.9)
600m - 51.59 - (31.6)
1000m - 1:24.12 - (32.5)
1400m - 1:57.34 - (33.2)
1800m - 2:30.94 - (33.6)
2200m - 3:04.14 - (33.2)
2600m - 3:37.88 - (33.7)
3000m - 4:11.18 - (33.3)
8.00 16
14 214 Isabelle  Weidemann CAN CAN 4:11.99200m - 20.69 - (20.6)
600m - 52.08 - (31.3)
1000m - 1:24.23 - (32.1)
1400m - 1:56.80 - (32.5)
1800m - 2:29.66 - (32.8)
2200m - 3:03.23 - (33.5)
2600m - 3:37.10 - (33.8)
3000m - 4:11.99 - (34.8)
8.81 14
15 227 Stephanie  Beckert GER GER 4:14.64200m - 21.60 - (21.6)
600m - 54.23 - (32.6)
1000m - 1:26.88 - (32.6)
1400m - 1:59.78 - (32.9)
1800m - 2:32.83 - (33.0)
2200m - 3:06.47 - (33.6)
2600m - 3:40.59 - (34.1)
3000m - 4:14.64 - (34.0)
11.46 12
16 287 Elizaveta  Kazelina RUS RUS 4:24.06200m - 20.15 - (20.1)
600m - 51.46 - (31.3)
1000m - 1:23.51 - (32.0)
1400m - 1:56.50 - (32.9)
1800m - 2:29.96 - (33.4)
2200m - 3:04.34 - (34.3)
2600m - 3:39.32 - (34.9)
3000m - 4:24.06 - (44.7)
20.88 10